Skip Page Navigation
NASA JPL Caltech
NASA Logo - Jet Propulsion Laboratory + View the NASA Portal
+ Near-Earth Object (NEO) Program
Search JPL
JPL Home Earth Solar System Stars & Galaxies Technology
JPL Solar System Dynamics
BODIES ORBITS EPHEMERIDES TOOLS PHYSICAL DATA DISCOVERY FAQ SITE MAP
JPL Small-Body Database Browser
Search: [ help ]  
207945 (1991 JW)
Classification: Apollo [NEO, PHA]          SPK-ID: 2207945
Ephemeris | Orbit Diagram | Orbital Elements | Physical Parameters | Discovery Circumstances | Close-Approach Data ]

[ hide orbit diagram ]
Orbit Diagram
Note: Make sure you have Java enabled on your browser to see the applet. This applet is provided as a 3D orbit visualization tool. The applet was implemented using 2-body methods, and hence should not be used for determining accurate long-term trajectories (over several years or decades) or planetary encounter circumstances. For accurate long-term ephemerides, please instead use our Horizons system.
Orbit Viewer

Additional Notes: the orbits shown in the applet are color coded. The planets are white lines, and the asteroid/comet is a blue line. The bright white line indicates the portion of the orbit that is above the ecliptic plane, and the darker portion is below the ecliptic plane. Likewise for the asteroid/comet orbit, the light blue indicates the portion above the ecliptic plane, and the dark blue the portion below the ecliptic plane.

Orbit Viewer applet originally written and kindly provided by Osamu Ajiki (AstroArts), and further modified by Ron Baalke (JPL).


Orbital Elements at Epoch 2456400.5 (2013-Apr-18.0) TDB
Reference: JPL 68 (heliocentric ecliptic J2000)
 Element Value Uncertainty (1-sigma)   Units 
e .1186407623828906 4.7888e-08  
a 1.039130637482156 2.9505e-09 AU
q .9158473864358534 4.8834e-08 AU
i 8.710344456186219 7.8404e-06 deg
node 53.88867747347247 1.2199e-05 deg
peri 301.8924495929324 3.1925e-05 deg
M 143.9395200599476 2.754e-05 deg
tp 2456245.803246052839
(2012-Nov-14.30324605)
3.0015e-05 JED
period 386.9043845483436
1.06
1.6479e-06
4.512e-09
d
yr
n .9304624459612917 3.963e-09 deg/d
Q 1.162413888528458 3.3006e-09 AU
  Orbit Determination Parameters
   # obs. used (total)      339  
   data-arc span      20491 days (56.10 yr)  
   first obs. used      1955-04-16  
   last obs. used      2011-05-23  
   planetary ephem.      DE405  
   SB-pert. ephem.      SB405-CPV-2  
   condition code      0  
   fit RMS      .49029  
   data source      ORB  
   producer      Otto Matic  
   solution date      2013-Apr-29 15:40:37  

Additional Information
 Earth MOID = .0204343 AU 
 T_jup = 5.885 
[ show covariance matrix ]

Ephemeris | Orbit Diagram | Orbital Elements | Physical Parameters | Discovery Circumstances | Close-Approach Data ]

Physical Parameter Table
Parameter Symbol Value Units Sigma Reference Notes
absolute magnitude H 19.188 mag .62243 68 autocmod 2.5c

207945 (1991 JW)          Discovered 1991-May-08 by Lawrence, K. J., Helin, E. F. at Palomar (675)
Reference: 20090311/Numbers.arcLast Updated: 2009-03-12

[ show close-approach data ]
Ephemeris | Orbit Diagram | Orbital Elements | Physical Parameters | Discovery Circumstances | Close-Approach Data ]
ABOUT SSD CREDITS/AWARDS PRIVACY/COPYRIGHT GLOSSARY LINKS
FirstGov 2013-May-22 04:33 UT
(server date/time)  
NASA Home Page
Site Manager:   Donald K. Yeomans
Webmaster  Alan B. Chamberlin